Location: Unspecified
(46.0725°N, 13.7344°E)
Time: 23:16:18
(UTC+02:00)

Okean 3 - Visible Passes

Search period start: 12 June 2024 00:00
Search period end: 22 June 2024 00:00
Orbit: 562 x 582 km, 82.5° (Epoch: 12 June)

Date Brightness Start Highest point End Pass type
(mag) Time Alt. Az. Time Alt. Az. Time Alt. Az.
12 Jun 5.5 22:03:29 10° ESE 22:05:12 12° E 22:06:56 10° ENE visible
12 Jun 3.8 23:39:26 27° SSW 23:41:31 60° W 23:45:39 10° N visible
13 Jun 5.3 22:05:33 11° ESE 22:07:41 16° E 22:10:12 10° NE visible
13 Jun 4.2 23:41:42 21° SW 23:44:09 46° WNW 23:48:11 10° N visible
14 Jun 5.0 22:07:47 13° SE 22:10:10 20° E 22:13:13 10° NE visible
14 Jun 4.7 23:43:55 16° SW 23:46:48 36° WNW 23:50:40 10° N visible
15 Jun 4.6 22:09:59 14° SE 22:12:39 25° E 22:16:06 10° NNE visible
15 Jun 5.1 23:46:07 11° SW 23:49:27 28° WNW 23:53:05 10° NNW visible
16 Jun 4.3 22:12:08 14° SSE 22:15:10 32° E 22:18:54 10° NNE visible
16 Jun 5.5 23:48:49 10° SW 23:52:07 23° WNW 23:55:26 10° NNW visible
17 Jun 3.9 22:14:14 13° SSE 22:17:41 42° E 22:21:38 10° NNE visible
17 Jun 5.9 23:51:54 10° WSW 23:54:47 18° WNW 23:57:43 10° NNW visible
18 Jun 3.6 22:16:19 11° S 22:20:13 55° E 22:24:18 10° NNE visible
18 Jun 6.1 23:55:09 10° W 23:57:29 15° WNW 23:59:50 10° NNW visible
19 Jun 3.4 22:18:38 10° S 22:22:45 72° E 22:26:56 10° NNE visible
19 Jun 6.3 23:58:43 10° W 00:00:11 12° WNW 00:01:39 10° NW visible
20 Jun 3.4 22:21:09 10° S 22:25:18 87° W 22:29:31 10° N visible
21 Jun 3.8 22:23:44 10° SSW 22:27:51 67° W 22:32:03 10° N visible
